Change the Weather History Date:

Tuesday, February 18, 2014

  Actual Average Record
Temperature  
Mean Temperature 18 °F -  
Max Temperature 35 °F 37 °F 59 °F (1981)
Min Temperature 1 °F 18 °F -6 °F (1979)
Degree Days  
Heating Degree Days 47    
Moisture  
Dew Point 21 °F    
Average Humidity 82    
Maximum Humidity 92    
Minimum Humidity 66    
Precipitation  
Precipitation 0.15 in - - ()
Sea Level Pressure  
Sea Level Pressure 30.06 in    
Wind  
Wind Speed 6 mph (SE)    
Max Wind Speed 15 mph    
Max Gust Speed 25 mph    
Visibility 7 miles    
Events Fog , Rain , Snow    
Averages and records for this station are not official NWS values.
T = Trace of Precipitation, MM = Missing Value Source: NWS Daily Summary

Daily Weather History Graph

Daily Weather History Graph

Search for Another Location

Airport or City:

Trip Planner

Search our weather history database for the weather conditions in past years. The results will help you decide how hot, cold, wet, or windy it might be!

Date:

Astronomy

Feb. 18, 2014 Rise Set
Actual Time 6:34 AM EST 5:19 PM EST
Civil Twilight 6:06 AM EST 5:48 PM EST
Nautical Twilight 5:33 AM EST 6:20 PM EST
Astronomical Twilight 5:01 AM EST 6:53 PM EST
Moon 9:14 PM EST (2/18) 8:01 AM EST (2/18)
Length of Visible Light 11h 42m
Length of Day
10h 45m
Waning Gibbous, 87% of the Moon is Illuminated
Feb 18
Waning Gibbous
Feb 22
Last Quarter
Mar 1
New
Mar 8
First Quarter
Mar 16
Full

Hourly Weather History & Observations

Time (EST) Temp. Windchill Dew Point Humidity Pressure Visibility Wind Dir Wind Speed Gust Speed Precip Events Conditions
12:52 AM 3.0 °F - -2.9 °F 76% 30.35 in 10.0 mi Calm Calm - N/A   Clear
1:52 AM 1.9 °F - -2.9 °F 80% 30.36 in 10.0 mi Calm Calm - N/A   Clear
2:52 AM 1.9 °F - -2.9 °F 80% 30.35 in 10.0 mi Calm Calm - N/A   Clear
3:52 AM 1.9 °F - -2.9 °F 80% 30.35 in 10.0 mi Calm Calm - N/A   Clear
4:52 AM 5.0 °F -2.1 °F -0.9 °F 76% 30.33 in 10.0 mi East 3.5 mph - N/A   Clear
5:52 AM 10.0 °F - 3.0 °F 73% 30.33 in 10.0 mi Calm Calm - N/A   Clear
6:52 AM 10.9 °F 4.7 °F 5.0 °F 77% 30.32 in 10.0 mi ESE 3.5 mph - N/A   Scattered Clouds
7:52 AM 18.0 °F 12.7 °F 10.0 °F 71% 30.30 in 10.0 mi East 3.5 mph - N/A   Overcast
8:52 AM 24.1 °F 14.4 °F 15.1 °F 69% 30.26 in 10.0 mi East 9.2 mph - N/A   Overcast
9:52 AM 28.0 °F 19.3 °F 19.0 °F 69% 30.24 in 10.0 mi ESE 9.2 mph - N/A   Overcast
10:52 AM 30.9 °F 21.2 °F 21.0 °F 67% 30.17 in 10.0 mi ESE 12.7 mph 19.6 mph N/A   Overcast
11:52 AM 33.1 °F 26.1 °F 23.0 °F 66% 30.15 in 10.0 mi ESE 8.1 mph - N/A   Overcast
12:21 PM 33.1 °F 25.5 °F 24.1 °F 70% 30.11 in 1.8 mi SE 9.2 mph 19.6 mph 0.00 in Snow Light Snow
12:32 PM 32.0 °F 24.8 °F 25.0 °F 75% 30.11 in 0.5 mi SE 8.1 mph 23.0 mph 0.00 in Snow Snow
12:39 PM 30.9 °F 22.2 °F 26.1 °F 82% 30.10 in 0.5 mi SE 10.4 mph - 0.00 in Snow Snow
12:49 PM 30.2 °F 21.9 °F 26.6 °F 86% 30.09 in 0.2 mi ESE 9.2 mph - 0.01 in Fog , Snow Snow
12:52 PM 30.9 °F 22.2 °F 27.0 °F 85% 30.09 in 0.2 mi ESE 10.4 mph - 0.01 in Fog , Snow Snow
1:52 PM 33.1 °F 23.4 °F 28.9 °F 85% 30.01 in 0.5 mi ESE 13.8 mph 23.0 mph 0.07 in Fog , Snow Snow
2:26 PM 33.1 °F 24.4 °F 30.0 °F 89% 29.96 in 1.0 mi SE 11.5 mph 24.2 mph 0.01 in Snow Light Snow
2:52 PM 33.1 °F 24.9 °F 30.0 °F 89% 29.96 in 0.8 mi SE 10.4 mph 18.4 mph 0.03 in Snow Light Snow
3:11 PM 33.1 °F 24.4 °F 30.0 °F 89% 29.94 in 1.5 mi SE 11.5 mph 17.3 mph 0.02 in Snow Light Snow
3:31 PM 33.1 °F 26.9 °F 30.0 °F 89% 29.92 in 3.0 mi SE 6.9 mph 18.4 mph 0.02 in Snow Light Snow
3:45 PM 33.1 °F 25.5 °F 30.0 °F 89% 29.90 in 2.5 mi SE 9.2 mph 23.0 mph 0.03 in Snow Light Snow
3:52 PM 34.0 °F 24.6 °F 30.0 °F 85% 29.90 in 6.0 mi ESE 13.8 mph 23.0 mph 0.03 in Snow Light Snow
4:52 PM 35.1 °F 27.9 °F 32.0 °F 89% 29.86 in 5.0 mi ESE 9.2 mph - 0.01 in Rain Light Rain
5:03 PM 35.1 °F 27.4 °F 32.0 °F 89% 29.85 in 5.0 mi ESE 10.4 mph - 0.00 in   Overcast
5:38 PM 35.1 °F - 32.0 °F 89% 29.84 in 10.0 mi North - - 0.00 in   Overcast
5:52 PM 35.1 °F - 33.1 °F 92% 29.84 in 10.0 mi Calm Calm - 0.00 in   Overcast
6:12 PM 35.1 °F 27.9 °F 32.0 °F 89% 29.84 in 7.0 mi WSW 9.2 mph - N/A   Overcast
6:36 PM 33.1 °F 24.4 °F 30.0 °F 89% 29.87 in 8.0 mi West 11.5 mph - N/A   Overcast
6:52 PM 30.9 °F 21.7 °F 28.0 °F 89% 29.88 in 10.0 mi West 11.5 mph 20.7 mph N/A   Overcast
7:52 PM 28.0 °F 16.5 °F 25.0 °F 88% 29.92 in 10.0 mi West 15.0 mph 25.3 mph N/A   Overcast
8:52 PM 28.9 °F 18.6 °F 25.0 °F 85% 29.95 in 10.0 mi West 12.7 mph - N/A   Overcast
9:52 PM 28.9 °F 19.2 °F 24.1 °F 82% 29.97 in 10.0 mi West 11.5 mph 19.6 mph N/A   Overcast
10:04 PM 28.9 °F 19.2 °F 24.1 °F 82% 29.97 in 10.0 mi West 11.5 mph - N/A   Overcast
10:29 PM 28.0 °F 17.5 °F 23.0 °F 81% 29.98 in 10.0 mi West 12.7 mph - N/A   Scattered Clouds
10:52 PM 27.0 °F 16.1 °F 21.9 °F 81% 30.01 in 10.0 mi West 12.7 mph 23.0 mph N/A   Clear
11:52 PM 26.1 °F 16.8 °F 19.9 °F 78% 30.03 in 10.0 mi West 9.2 mph - N/A   Clear